Weather History for Millville, NJ

Change the Weather History Date:

Friday, May 4, 2012

  Actual Average Record
Temperature  
Mean Temperature 66 °F -  
Max Temperature 79 °F 65 °F 88 °F (1965)
Min Temperature 55 °F 46 °F 32 °F (1986)
Cooling Degree Days 1    
Growing Degree Days 16 (Base 50)    
Moisture  
Dew Point 59 °F    
Average Humidity 85    
Maximum Humidity 100    
Minimum Humidity 62    
Precipitation  
Precipitation 0.00 in - - ()
Sea Level Pressure  
Sea Level Pressure 29.98 in    
Wind  
Wind Speed 5 mph (SSE)    
Max Wind Speed 10 mph    
Max Gust Speed -    
Visibility 8 miles    
Events      
Averages and records for this station are not official NWS values.
T = Trace of Precipitation, MM = Missing Value Source: NWS Daily Summary

Daily Weather History Graph

Daily Weather History Graph

Search for Another Location

Airport:

Trip Planner

Search our weather history database for the weather conditions in past years. The results will help you decide how hot, cold, wet, or windy it might be!

Date:

Astronomy

May. 04, 2012 Rise Set
Actual Time 5:57 AM EDT 7:57 PM EDT
Civil Twilight 5:28 AM EDT 8:26 PM EDT
Nautical Twilight 4:52 AM EDT 9:02 PM EDT
Astronomical Twilight 4:13 AM EDT 9:41 PM EDT
Moon 6:32 PM EDT (5/4) 4:36 AM EDT (5/4)
Length of Visible Light 14h 58m
Length of Day
13h 59m
Waxing Gibbous, 97% of the Moon is Illuminated
May 4
Waxing Gibbous
May 5
Full
May 12
Last Quarter
May 20
New
May 28
First Quarter

Hourly Weather History & Observations

Time (EDT) Temp. Dew Point Humidity Pressure Visibility Wind Dir Wind Speed Gust Speed Precip Events Conditions
12:54 AM 55.9 °F 55.0 °F 97% 30.07 in 6.0 mi SE 5.8 mph - N/A   Overcast
1:54 AM 55.9 °F 55.0 °F 97% 30.04 in 6.0 mi SE 8.1 mph - N/A   Overcast
2:54 AM 55.9 °F 55.0 °F 97% 30.04 in 7.0 mi ESE 4.6 mph - N/A   Overcast
3:54 AM 55.9 °F 55.0 °F 97% 30.02 in 9.0 mi East 4.6 mph - N/A   Overcast
4:54 AM 55.9 °F 55.0 °F 97% 30.00 in 8.0 mi ESE 5.8 mph - N/A   Overcast
5:37 AM 55.4 °F 55.4 °F 100% 30.03 in 10.0 mi SE 3.5 mph - N/A   Overcast
5:54 AM 55.9 °F 55.0 °F 97% 30.03 in 10.0 mi SSE 3.5 mph - N/A   Overcast
6:54 AM 55.9 °F 55.0 °F 97% 30.02 in 5.0 mi SSE 3.5 mph - N/A   Overcast
7:03 AM 55.4 °F 55.4 °F 100% 30.02 in 1.8 mi SE 4.6 mph - N/A   Overcast
7:20 AM 57.2 °F 55.4 °F 94% 30.03 in 0.8 mi SSE 3.5 mph - N/A   Overcast
7:28 AM 57.2 °F 55.4 °F 94% 30.04 in 1.5 mi Calm Calm - N/A   Overcast
7:34 AM 57.2 °F 55.4 °F 94% 30.04 in 3.0 mi Calm Calm - N/A   Overcast
7:54 AM 57.0 °F 55.9 °F 96% 30.05 in 5.0 mi Calm Calm - N/A   Overcast
8:54 AM 57.9 °F 55.9 °F 93% 30.02 in 8.0 mi SE 5.8 mph - N/A   Overcast
9:21 AM 59.0 °F 57.2 °F 94% 30.02 in 10.0 mi SE 3.5 mph - N/A   Overcast
9:54 AM 62.1 °F 57.9 °F 86% 30.02 in 10.0 mi ESE 3.5 mph - N/A   Overcast
10:05 AM 62.6 °F 57.2 °F 82% 30.00 in - North - - N/A   Unknown
10:54 AM - - N/A% 29.99 in - North - - N/A   Unknown
11:54 AM 70.0 °F 60.1 °F 71% 29.97 in 10.0 mi Variable 5.8 mph - N/A   Clear
12:15 PM 71.6 °F 60.8 °F 69% 29.98 in 10.0 mi Variable 3.5 mph - N/A   Mostly Cloudy
12:54 PM 73.0 °F 61.0 °F 66% 29.96 in 10.0 mi WSW 8.1 mph - N/A   Mostly Cloudy
1:05 PM 71.6 °F 60.8 °F 69% 29.96 in 10.0 mi WSW 4.6 mph - N/A   Scattered Clouds
1:54 PM 73.9 °F 63.0 °F 68% 29.97 in 10.0 mi West 10.4 mph - N/A   Clear
2:54 PM 73.9 °F 62.1 °F 66% 29.96 in 10.0 mi WNW 9.2 mph - N/A   Clear
3:54 PM 75.9 °F 63.0 °F 64% 29.89 in 10.0 mi NE 8.1 mph - N/A   Clear
4:54 PM 77.0 °F 63.0 °F 62% 29.89 in 10.0 mi West 4.6 mph - N/A   Clear
5:54 PM 77.0 °F 64.9 °F 66% 29.87 in 9.0 mi WSW 9.2 mph - N/A   Clear
6:54 PM 73.0 °F 64.9 °F 76% 29.88 in 8.0 mi Calm Calm - N/A   Clear
7:54 PM 71.6 °F 64.4 °F 78% 29.88 in 8.0 mi Calm Calm - N/A   Partly Cloudy
8:54 PM 66.9 °F 63.0 °F 87% 29.89 in 8.0 mi Calm Calm - N/A   Partly Cloudy
9:54 PM 64.9 °F 62.1 °F 90% 29.88 in 7.0 mi Calm Calm - N/A   Clear
10:54 PM 64.0 °F 62.1 °F 93% 29.89 in 6.0 mi WSW 3.5 mph - N/A   Partly Cloudy
11:54 PM 66.0 °F 63.0 °F 90% 29.89 in 5.0 mi Calm Calm - N/A   Clear